Starlink 31792

operational
NORAD ID: 60132 Int'l Des: 2024-118 Owner: SPXS Country: US Constellation: starlink
LEOCIRCULAR

关于 Starlink 31792

正在加载描述...

实时位置

正在加载3D地球...

即将过境

高度历史

Altitude vs Time

uPlot chart will show altitude changes over time

两行轨道根数

1 60132U 24118V 25306.15822274 .00005156 00000-0 18609-3 0 9999
2 60132 53.1598 256.7095 0001217 94.6554 265.4586 15.30197354 76202
Epoch: Nov 2, 2025 • Age: 26 hours

当前状态

高度 488.2 km
速度 7.62 km/s
星下点 -37.97°S, 79.86°E
发射日期 Jun 24, 2024
运行时间 1.3 years
类型 internet

技术详情

分类 Payload
质量 730.00 kg
干质量 700.00 kg
总质量 730.00 kg
长度 0.30 m
直径 4.10 m
跨度 29.00 m
形状 Box + pan
制造商 SPXS
平台类型 Starlink V2M
阶段状态 In Orbit
所有者/国家 SPXS/US

大型星座

Loading constellations...